Wind_Speed
16 17 19 20 21 21 21 20 20 20 19 19 19 19 18 17 15 15 15 16 15 14 14 15 15 16 16 16 16 15 14 13 13 12 12 11 11 11 11 11 10 10 10 9 8 8 8 8 8 9 8 8 7 7 7 8 8 8 8 7 7 7 7 7 7 6 5 5 5 4 4 5 5 5 5 5 5 6 7 7 6 6 6 7 7
16 18 20 20 21 22 22 21 20 20 20 20 20 20 19 18 17 16 16 16 15 14 14 14 15 15 16 17 16 16 15 14 14 13 12 12 12 12 11 12 11 11 11 10 9 9 9 9 9 9 9 9 9 8 8 9 9 9 9 9 8 8 9 9 9 9 8 8 8 7 7 7 8 7 7 7 7 7 7 6 6 6 7 7 7
18 19 20 20 21 22 23 22 21 20 20 21 21 21 20 19 18 17 16 15 15 14 14 14 15 15 16 16 16 16 15 15 14 14 13 13 12 12 12 12 12 12 11 11 10 10 9 9 9 10 10 10 10 10 10 10 10 10 10 10 9 9 9 10 10 10 10 9 8 8 8 7 8 8 7 7 7 7 6 5 5 6 7 8 8
19 19 20 20 21 21 23 23 23 22 22 22 22 22 21 20 19 18 16 15 15 14 14 14 14 15 15 16 16 16 16 15 15 15 14 14 13 13 12 12 12 12 11 11 10 10 10 9 10 10 10 10 10 11 11 11 11 11 11 11 10 9 9 10 10 10 10 10 9 8 8 8 8 8 8 8 7 7 6 6 6 6 7 9 9
20 19 20 21 21 21 23 24 25 24 24 24 23 23 22 21 20 19 17 17 16 15 15 15 15 15 16 16 16 17 17 17 16 16 16 15 15 14 13 12 12 12 11 11 10 10 11 11 11 11 10 10 10 10 11 11 12 12 12 12 11 11 10 10 10 10 11 10 9 8 8 9 10 9 8 8 8 7 7 8 8 8 9 10 10
22 20 20 21 21 22 23 25 26 27 27 26 25 24 23 23 22 21 20 19 18 17 17 17 17 17 16 16 16 17 18 18 18 18 18 17 17 16 15 14 13 12 12 12 12 12 12 12 13 12 11 11 11 11 10 11 11 11 11 11 12 12 11 11 12 12 12 12 11 10 10 10 11 10 9 9 10 9 9 10 10 9 10 11 11
26 24 23 23 23 24 25 26 27 28 29 29 28 26 25 24 24 23 23 22 20 20 19 19 19 19 18 18 18 18 18 19 19 19 19 19 18 17 16 15 14 14 14 14 14 13 13 14 14 14 14 13 13 13 12 11 11 11 10 10 11 11 11 11 12 13 13 13 13 13 12 11 11 11 10 10 10 10 10 12 11 10 9 10 11
29 28 28 27 26 26 27 28 28 29 30 30 29 28 26 25 25 25 24 23 23 22 22 22 21 20 20 20 19 19 19 19 19 20 20 19 19 18 16 16 15 15 15 15 15 15 15 16 16 16 16 16 15 15 14 14 13 12 12 11 11 11 11 11 12 12 13 13 13 13 14 13 13 12 12 11 10 10 10 11 12 12 11 12 12
31 31 31 30 29 29 30 29 29 29 30 31 31 30 28 26 25 25 24 24 24 24 24 24 23 22 22 22 21 20 20 20 20 20 20 20 19 19 18 17 16 16 16 16 17 17 17 17 17 17 17 17 17 17 17 16 16 15 14 14 13 13 13 13 13 13 13 14 14 14 14 15 15 14 14 13 12 12 12 12 12 13 13 14 15
32 32 32 33 32 31 31 31 30 29 30 31 31 31 30 29 27 26 26 25 25 25 25 25 25 24 24 24 23 23 22 22 22 21 20 20 20 20 19 18 17 17 17 17 18 18 18 18 19 18 18 18 19 18 18 18 18 18 17 16 15 15 15 15 15 14 15 15 16 15 16 17 18 17 16 16 15 15 15 14 14 14 14 14 17
32 31 33 35 36 34 35 35 33 32 31 31 31 32 32 31 30 29 28 28 27 27 27 27 27 27 26 26 25 25 25 25 24 23 22 21 21 21 20 20 19 19 19 20 20 20 20 20 20 20 20 20 20 20 20 20 20 20 19 18 17 17 17 17 16 16 16 17 17 17 17 19 20 19 19 18 17 16 16 16 15 15 15 15 16
28 29 31 33 36 38 39 38 36 35 33 32 32 32 32 32 32 32 31 30 30 30 29 29 28 28 28 28 27 27 27 27 27 26 25 24 23 22 22 21 21 22 22 22 22 22 21 21 21 21 21 22 22 22 22 22 22 22 21 20 19 19 18 18 18 18 17 17 18 19 19 19 20 21 20 18 16 16 15 15 15 14 15 14 14
25 26 27 28 30 33 35 37 38 37 35 34 33 32 32 33 33 34 34 33 32 31 31 30 29 29 28 29 28 28 29 29 28 28 27 26 25 24 23 22 22 23 24 24 23 23 22 22 22 22 22 22 22 22 23 23 23 23 22 22 21 20 20 20 20 20 20 19 19 20 20 20 20 21 21 19 17 17 16 15 15 14 14 15 15
25 25 25 25 25 26 28 30 35 38 38 36 34 33 33 33 33 33 33 32 32 32 31 30 30 29 29 29 29 30 30 31 30 30 29 29 28 26 25 24 24 24 25 25 25 24 24 24 23 23 23 23 23 23 23 23 23 23 22 22 22 22 22 22 22 23 22 22 21 21 22 22 21 22 23 22 20 19 18 17 16 16 16 16 17
24 23 23 24 24 23 23 23 26 32 36 36 35 34 34 34 32 30 30 31 31 32 32 32 31 30 29 29 30 30 31 32 32 32 32 31 30 28 27 27 26 26 27 27 27 27 27 26 25 25 25 25 25 25 24 24 23 23 23 23 23 24 24 24 25 25 24 24 23 23 24 24 24 24 24 24 23 22 21 19 19 19 19 17 18
22 21 21 22 22 21 21 21 22 25 29 32 33 34 36 36 33 31 32 33 33 32 33 34 34 32 31 31 31 31 32 32 33 33 33 32 31 31 30 30 30 29 29 29 29 29 29 29 28 27 27 27 27 27 26 25 24 24 24 24 25 25 25 27 28 28 27 26 25 24 24 25 26 25 26 26 26 25 23 21 22 23 21 19 19
22 23 22 21 20 18 17 19 21 22 24 26 29 32 35 36 35 35 35 35 34 33 34 34 35 35 34 33 33 32 32 32 33 33 33 33 33 33 32 32 32 32 32 31 31 31 30 30 30 29 29 29 29 29 28 27 26 26 26 26 26 26 27 30 31 30 29 28 27 26 26 26 27 27 28 28 28 28 26 24 25 26 24 21 20
22 23 24 24 23 21 19 17 17 18 19 20 23 26 30 33 34 35 35 35 35 35 35 35 35 35 35 35 34 33 33 33 33 34 34 34 34 33 33 33 33 33 32 32 31 31 31 31 31 30 30 30 31 31 30 29 27 27 27 26 26 27 29 31 31 31 31 31 29 28 28 28 28 28 29 30 31 30 29 27 28 29 26 24 23
25 23 23 23 23 24 24 22 20 19 18 16 16 18 22 28 32 33 33 34 34 35 35 35 35 35 35 35 35 34 34 34 35 35 35 35 34 33 33 33 33 32 32 32 31 31 30 30 30 30 30 31 31 31 31 31 29 29 28 27 27 28 29 30 31 31 32 32 31 30 29 29 29 29 30 31 33 33 32 31 31 30 29 27 27
30 28 26 25 23 24 25 25 25 25 23 21 18 16 17 21 26 27 29 30 31 32 33 34 34 34 34 34 35 36 36 37 37 37 36 35 34 34 34 34 34 33 32 32 31 31 31 30 30 30 30 31 31 32 32 33 32 31 31 30 29 29 29 30 30 31 31 31 32 32 31 31 31 30 30 31 33 34 35 34 33 33 32 30 29
33 31 29 28 26 25 26 27 27 27 27 27 25 23 20 20 20 20 21 23 24 25 28 29 30 31 33 35 37 37 38 39 40 40 38 36 35 35 36 35 35 34 32 31 31 31 32 32 32 32 32 32 32 33 34 34 34 34 34 33 32 31 30 30 30 31 31 31 32 32 31 32 32 32 32 32 33 35 36 35 33 34 33 32 32
34 34 32 31 29 27 27 28 27 27 28 28 27 27 27 25 22 20 20 19 19 21 22 22 23 25 30 34 37 39 40 41 41 41 40 39 37 37 37 37 36 35 33 32 31 31 32 33 34 34 34 34 34 34 35 36 36 36 36 36 35 34 33 32 32 32 32 32 33 32 33 33 34 34 34 34 35 36 36 36 35 34 34 34 33
33 34 34 33 32 30 29 29 27 27 28 29 28 28 28 28 26 24 24 23 24 25 24 22 21 22 24 27 31 35 37 39 41 42 42 41 39 38 38 38 37 35 34 34 33 33 33 34 34 35 35 34 34 35 36 36 36 36 37 38 38 37 36 35 35 34 34 34 35 35 35 35 35 35 35 36 36 37 37 37 37 37 36 35 35
33 33 34 34 33 32 31 31 30 29 29 30 30 29 29 29 28 28 27 27 27 28 28 27 26 24 23 24 26 29 30 30 33 37 40 41 40 39 39 38 37 36 35 36 36 36 36 37 36 36 36 35 34 35 36 36 36 36 36 36 37 37 38 38 37 37 36 36 37 37 37 38 38 38 38 37 37 37 38 38 39 39 38 37 36
34 34 34 34 34 33 32 32 31 31 31 31 32 31 31 31 31 31 30 29 29 29 29 30 31 30 28 27 27 28 27 27 27 29 32 34 36 37 37 36 34 33 33 33 33 34 36 38 39 38 38 37 36 37 38 38 38 37 37 36 36 37 37 38 38 38 38 38 38 38 38 39 40 40 40 40 40 39 40 40 39 39 39 39 38
38 37 36 36 35 34 34 33 33 32 32 32 33 33 33 32 33 33 33 32 31 30 30 31 33 34 34 33 31 30 29 30 29 29 29 30 30 31 31 30 29 29 28 27 28 28 30 33 37 38 39 39 39 40 40 40 39 39 38 38 37 37 37 37 38 38 38 38 38 38 39 40 40 40 41 41 41 41 41 41 39 39 40 40 38
42 41 40 39 38 37 37 36 36 35 35 35 35 35 35 35 35 35 35 34 33 32 32 32 33 33 35 36 36 35 34 33 32 31 32 32 32 31 30 29 29 29 28 28 28 27 27 28 31 33 34 34 35 36 37 38 38 38 38 38 38 38 38 38 38 38 38 38 38 38 39 40 40 40 41 41 40 41 41 41 39 38 39 40 39
46 46 45 44 43 42 41 41 40 39 38 38 38 38 38 38 38 37 37 37 36 35 34 34 34 35 35 35 35 36 36 36 36 35 34 34 34 34 34 33 33 33 32 31 31 30 30 30 30 31 31 31 32 32 33 33 34 34 35 36 37 37 38 38 38 38 37 37 38 38 39 39 40 40 41 41 40 41 41 40 39 38 38 38 38
49 49 48 48 47 46 46 45 45 44 43 42 41 41 40 41 41 40 40 40 39 39 38 37 36 36 37 37 37 37 36 37 38 38 38 37 37 37 38 37 37 36 36 35 34 34 34 34 34 34 34 34 34 35 34 34 33 34 35 36 37 37 38 38 38 37 37 37 37 37 37 38 38 39 40 39 40 40 40 39 39 38 38 37 36
50 50 49 49 48 48 47 47 47 46 46 46 45 44 44 43 43 43 42 42 42 42 42 41 40 39 39 39 39 39 39 39 39 39 40 40 40 40 40 40 40 40 40 39 39 39 38 38 38 38 38 38 38 39 38 38 37 37 38 39 39 40 40 40 39 39 38 38 37 37 37 37 37 38 39 38 38 38 39 40 40 39 39 38 37
52 52 51 50 49 49 48 48 48 48 48 48 48 47 46 46 45 45 45 45 44 44 44 44 43 43 42 41 41 42 42 42 42 41 41 42 42 42 42 42 42 43 43 43 43 43 43 43 43 43 43 43 43 43 43 42 41 41 42 42 43 43 43 43 43 42 41 41 40 40 39 38 38 38 39 39 38 38 38 39 40 40 40 39 38
54 54 53 53 52 51 50 50 49 49 49 50 50 49 49 48 48 47 47 47 47 47 47 46 46 46 45 45 44 44 44 44 45 45 45 44 44 44 43 43 44 44 45 45 45 46 46 46 46 46 47 47 47 48 48 47 46 45 45 45 46 46 46 46 46 46 45 45 44 44 43 42 41 40 39 40 40 39 39 40 40 41 41 40 40
55 55 55 55 55 54 53 53 52 52 52 52 51 51 51 51 51 50 50 50 50 50 50 49 49 49 49 48 48 47 47 47 47 47 48 48 48 47 47 46 46 46 46 46 47 47 47 47 48 48 48 49 49 50 50 50 50 49 49 49 49 49 49 49 49 50 49 49 48 48 47 47 46 44 42 41 41 40 40 40 40 41 41 41 41
56 56 56 57 56 56 56 55 54 54 54 54 54 53 53 53 54 53 53 53 53 53 53 53 52 52 52 52 51 51 51 51 51 51 51 50 51 51 51 50 49 49 48 49 49 49 49 49 49 49 49 49 50 50 51 51 52 51 51 51 51 51 52 52 52 52 53 53 52 51 51 50 50 49 48 46 45 44 43 42 41 41 42 42 42
56 56 57 57 57 57 57 57 56 56 55 55 55 55 54 55 55 55 55 56 56 56 56 56 56 56 56 55 55 55 55 54 55 55 54 54 54 53 53 53 53 52 52 51 51 51 51 51 51 51 51 51 51 51 51 51 52 52 52 52 52 52 53 53 54 54 54 55 55 55 54 53 53 53 52 51 50 49 48 46 45 45 44 44 43
56 56 56 57 57 58 58 58 57 57 57 56 56 55 55 55 56 56 56 57 57 57 57 58 58 58 58 58 58 58 58 58 58 58 57 57 57 56 56 56 56 55 55 55 54 54 54 54 54 54 54 54 53 53 53 53 53 53 53 53 53 53 54 54 54 55 55 56 56 56 56 56 55 55 54 54 54 53 52 51 50 50 49 49 48
57 57 57 57 57 58 58 59 58 58 58 57 57 57 56 56 56 56 57 57 57 58 58 59 59 59 60 59 59 59 60 60 60 60 60 59 59 59 59 58 58 58 58 58 57 57 56 56 56 56 56 56 56 56 55 55 55 55 55 55 55 55 55 55 56 56 56 56 56 57 57 57 57 57 56 55 55 56 56 55 55 54 54 54 53
58 58 58 58 58 58 58 59 59 59 59 58 58 58 58 58 58 57 57 58 58 58 59 59 60 60 61 60 60 60 61 61 61 61 61 61 61 61 61 61 60 60 60 60 60 60 59 59 58 58 58 58 58 58 58 58 58 57 57 57 57 57 57 57 58 58 58 58 58 58 58 58 58 58 58 58 57 57 57 57 57 57 57 56 56
58 59 59 59 59 59 59 59 59 59 59 59 59 59 60 59 59 59 58 58 58 59 60 61 61 62 62 62 62 62 63 63 63 63 63 63 63 63 63 63 63 63 63 62 62 62 62 62 62 62 61 61 61 61 61 61 61 61 60 60 59 59 59 60 60 60 60 60 60 60 60 60 60 60 60 60 60 59 59 59 59 59 59 58 58
58 59 59 59 59 60 60 60 60 60 59 59 59 60 60 60 60 59 59 59 59 60 60 61 62 62 63 63 63 64 64 64 64 65 65 65 65 65 65 65 65 65 65 65 65 65 65 65 65 65 65 65 65 65 65 65 64 64 64 63 63 63 62 62 62 62 62 62 62 62 61 61 62 62 62 62 62 62 62 61 61 61 61 60 60
57 58 59 59 59 59 59 59 59 59 59 59 59 59 59 59 59 59 59 59 59 59 60 60 61 61 62 63 64 64 64 65 65 66 66 66 67 67 67 67 67 67 68 68 68 68 68 68 68 68 68 68 68 68 68 68 68 68 68 67 67 67 66 66 66 66 65 65 65 65 64 64 64 64 64 64 64 64 64 64 64 63 63 63 63
52 53 55 56 58 58 58 59 59 59 59 58 58 58 58 58 58 58 58 58 59 59 59 59 59 60 61 61 62 63 64 64 65 66 67 67 68 68 68 68 69 69 70 70 70 71 71 71 71 72 72 72 72 72 72 72 72 72 71 71 71 71 70 70 70 70 70 69 68 68 68 67 67 67 66 66 66 66 66 66 66 66 66 66 65
51 51 51 52 53 54 55 56 57 58 58 58 58 58 58 58 58 58 59 59 59 59 59 59 59 60 60 61 61 62 63 64 64 65 66 67 67 68 68 69 69 70 70 71 72 72 73 73 73 74 74 74 75 75 75 75 75 75 75 75 74 74 74 74 74 74 74 73 73 73 72 71 71 70 70 70 69 69 69 68 68 68 68 68 68
51 51 51 51 51 50 51 52 53 54 55 55 56 56 57 57 57 57 58 59 59 59 60 60 60 61 61 61 62 62 63 64 65 65 66 67 68 68 69 69 69 70 71 71 72 73 73 74 74 75 75 76 77 77 77 78 78 78 78 78 78 78 78 78 78 78 78 78 77 77 77 76 75 75 74 74 74 73 73 72 72 72 71 71 71
51 52 52 51 51 51 50 50 50 50 51 51 52 53 54 54 54 55 55 56 57 58 59 59 59 60 61 61 62 63 63 64 65 65 66 67 68 69 69 70 71 71 72 73 73 74 75 75 76 76 77 77 78 78 79 80 80 80 81 81 81 81 81 81 82 82 82 81 81 81 81 80 80 79 79 79 78 78 77 77 76 76 75 75 75
51 51 51 51 51 51 51 50 50 50 49 49 50 50 50 50 51 51 52 52 53 54 54 55 55 56 57 58 58 59 60 61 61 62 63 64 65 66 67 68 69 70 71 72 73 74 75 76 77 77 78 79 79 80 80 81 81 82 82 83 83 84 84 84 84 85 85 85 84 84 84 84 83 83 83 83 83 82 82 81 81 81 80 80 79
50 50 51 51 51 51 51 51 51 51 50 50 49 49 48 48 48 47 48 48 48 49 49 50 50 51 52 53 54 55 55 56 57 58 59 60 61 62 63 64 65 66 67 68 69 70 71 72 73 75 76 77 78 79 80 81 82 83 83 84 85 86 86 87 87 87 88 88 88 87 87 86 86 86 86 86 86 86 86 86 85 85 85 84 84
49 49 50 50 51 51 51 51 51 51 50 50 49 49 48 47 47 46 46 46 47 47 48 48 49 50 51 52 52 53 54 54 55 56 57 57 58 59 60 61 62 63 64 65 66 67 68 69 70 71 72 73 74 76 77 78 79 80 82 83 85 86 87 88 89 90 90 91 91 90 90 89 89 88 88 88 89 89 89 89 89 89 89 89 88
48 49 49 49 49 49 50 50 50 51 50 50 49 49 48 48 48 48 48 48 49 49 50 50 51 51 52 52 53 53 54 54 55 56 56 57 58 59 59 60 61 62 63 64 65 65 66 67 68 69 70 71 72 73 75 76 77 78 79 80 82 84 86 87 89 90 91 92 93 93 93 92 92 91 91 91 91 92 92 92 93 93 93 92 92
49 49 48 48 47 47 47 48 49 50 50 50 50 50 50 50 50 50 51 51 51 51 51 51 51 51 52 52 53 53 53 54 54 54 55 55 56 57 58 59 59 61 61 63 64 65 66 67 68 69 70 71 72 73 74 75 76 77 78 79 81 82 84 85 87 89 90 92 92 92 93 94 94 94 94 94 94 94 94 95 96 96 96 96 96
48 49 48 48 47 46 45 45 46 47 48 49 50 51 51 51 52 52 52 52 52 51 51 50 50 50 50 51 51 51 51 51 52 52 53 53 54 55 56 57 58 59 60 62 63 65 66 67 69 70 71 73 73 75 75 76 77 78 79 81 82 84 86 87 89 90 92 93 93 92 93 93 94 94 94 94 95 95 96 97 98 99 99 99 99
Wind_Direction
218 219 218 218 217 217 214 211 211 213 213 215 217 218 220 224 225 225 225 225 224 224 224 218 210 208 210 211 213 214 216 218 220 220 218 214 212 212 214 217 221 224 226 229 230 231 232 233 231 231 232 235 238 239 242 245 249 254 256 254 254 256 258 261 267 271 271 276 282 286 296 309 315 318 321 327 331 330 332 340 346 352 0 10 20
215 218 217 217 218 220 221 217 213 213 215 216 218 217 218 221 225 228 229 228 226 226 229 227 222 218 217 217 217 218 220 221 223 224 225 224 221 220 219 220 223 225 228 232 236 238 239 239 241 242 241 242 243 242 244 248 253 258 260 262 263 264 267 271 275 283 291 296 300 306 313 315 315 317 321 326 329 327 330 341 349 353 0 4 9
215 217 218 218 217 218 221 222 219 216 217 218 219 220 219 220 223 228 231 232 231 229 229 230 230 229 228 226 224 224 226 227 228 227 229 230 230 228 227 227 227 228 230 234 240 245 248 248 249 252 253 252 252 252 251 252 256 258 261 263 264 263 266 271 276 284 293 299 304 311 316 312 310 315 322 326 327 328 337 353 357 353 354 351 350
216 215 216 217 218 218 219 222 223 221 220 220 220 221 221 220 222 226 230 233 234 233 231 231 233 236 237 235 233 231 231 233 234 233 232 234 235 234 234 234 236 238 239 243 248 253 257 260 260 261 262 262 263 263 262 261 262 265 267 270 272 271 270 272 277 284 293 302 308 313 317 319 319 322 326 327 326 329 340 348 347 346 344 339 336
219 218 218 218 217 217 218 221 223 223 222 222 221 221 220 220 222 224 226 230 232 233 234 234 234 237 239 239 238 238 236 236 238 238 237 236 235 236 237 238 241 245 248 252 256 260 263 265 266 267 268 267 266 266 267 268 270 271 274 277 280 281 280 281 284 287 291 298 305 308 310 312 316 321 326 326 325 329 336 335 331 331 332 328 325
225 224 227 227 225 221 220 220 221 223 224 223 222 222 221 219 219 220 221 224 227 229 232 234 233 234 236 238 240 240 239 238 239 240 241 239 237 237 238 239 242 246 251 253 256 259 261 263 264 266 268 268 266 265 265 268 270 273 274 277 281 285 288 289 290 292 294 297 302 305 306 304 305 311 318 318 318 320 323 320 316 318 321 318 318
230 229 229 231 231 228 225 222 221 221 223 223 223 222 221 220 219 220 220 220 222 224 227 231 232 231 231 233 237 239 240 240 240 240 242 243 243 242 242 244 246 248 251 254 256 257 258 260 262 263 265 266 265 264 264 265 266 269 272 274 277 282 286 289 290 291 293 295 298 302 305 303 301 303 308 310 310 310 312 311 309 310 313 312 314
230 231 230 229 229 228 226 225 224 223 222 223 223 223 222 222 221 222 222 221 221 221 223 227 229 230 230 230 232 236 239 240 241 241 242 244 247 248 248 249 251 252 254 256 258 259 259 260 262 263 264 266 266 267 267 268 269 271 274 276 277 280 283 285 286 288 290 292 295 298 300 300 299 300 303 305 305 305 306 307 306 308 311 310 308
233 234 233 233 233 232 229 227 226 225 225 224 223 223 222 222 222 223 224 224 224 223 223 225 228 229 229 230 230 231 234 237 239 241 243 246 248 250 251 251 252 254 255 256 256 257 257 258 259 260 262 264 266 267 269 271 273 274 276 278 279 279 281 282 282 284 286 288 290 293 294 294 294 296 299 299 300 301 302 302 302 303 305 304 301
236 238 237 237 238 238 237 235 230 226 226 225 225 224 223 222 221 221 222 224 225 226 225 225 226 227 228 230 229 229 230 233 234 237 241 245 248 250 252 253 253 252 251 251 251 251 251 252 253 255 257 259 261 263 265 266 268 270 271 274 276 278 279 280 281 283 284 286 287 288 289 289 289 291 292 292 293 295 295 296 297 298 299 298 296
236 239 241 241 241 239 239 238 234 229 226 225 225 226 225 224 222 221 221 222 222 225 226 226 226 227 228 229 229 229 230 232 233 234 237 240 243 246 249 251 251 249 247 246 246 246 246 248 249 251 253 255 257 259 260 261 262 263 264 264 267 270 273 275 277 279 281 283 285 285 285 286 287 288 287 287 289 290 290 290 292 294 294 293 292
239 240 243 246 245 242 240 238 234 231 229 227 226 226 226 226 225 223 222 222 222 222 223 225 226 227 229 230 230 231 231 233 235 236 237 239 240 242 245 247 249 250 250 250 250 250 250 250 251 252 253 256 257 259 260 262 263 264 264 264 264 264 266 269 272 273 274 275 278 280 281 282 284 286 285 287 289 290 290 290 291 292 291 290 288
239 240 243 246 247 245 243 240 236 233 231 229 228 228 228 228 228 227 226 225 226 225 224 225 226 226 228 231 232 233 234 236 237 239 240 241 241 242 243 245 248 252 255 257 258 258 258 257 257 258 258 259 261 262 263 265 266 268 269 271 271 270 270 271 272 273 273 273 274 277 279 280 282 285 288 291 293 293 293 293 293 291 287 285 282
240 241 242 244 246 246 246 244 240 236 233 231 230 229 230 230 230 230 231 230 231 232 230 228 228 228 229 231 232 234 236 237 238 239 240 242 243 244 244 245 247 251 255 258 261 262 262 261 261 262 262 263 263 263 264 265 268 270 273 275 276 276 277 277 276 276 277 277 278 278 281 283 284 286 290 294 296 295 294 294 293 289 283 279 277
244 244 244 244 245 246 247 247 244 239 235 234 234 234 235 235 232 230 233 233 235 237 237 235 234 232 232 234 235 236 238 239 240 241 241 242 243 243 244 245 246 248 252 255 258 261 262 263 264 265 266 267 267 268 269 271 273 274 275 276 276 276 276 276 275 274 275 275 276 277 279 283 285 286 288 290 292 292 291 291 290 286 280 279 278
244 242 241 242 245 247 249 248 245 240 237 237 238 239 239 239 234 228 227 230 233 237 238 238 238 237 235 235 237 238 240 242 243 244 244 244 244 244 244 245 247 248 251 254 256 259 262 264 266 268 269 270 271 271 272 273 274 274 274 274 274 275 274 273 273 273 273 273 273 274 275 278 281 282 283 284 285 285 285 287 285 281 278 279 279
249 245 240 238 244 248 248 245 241 239 240 241 242 242 242 240 235 228 226 227 230 233 235 236 238 239 238 237 238 239 241 244 246 248 249 249 248 248 247 248 249 251 253 256 258 261 264 267 269 270 270 271 272 273 273 273 274 274 274 274 275 275 274 273 274 276 276 276 276 275 275 275 276 277 278 279 280 280 280 281 280 278 278 278 276
248 247 244 243 246 247 246 246 243 239 241 245 246 243 241 239 235 231 230 229 229 232 235 234 235 237 239 240 241 242 244 245 247 248 249 251 252 251 250 250 251 252 254 256 259 262 265 267 268 270 270 272 273 274 275 275 276 276 275 275 275 274 273 273 276 278 279 280 279 278 277 275 275 276 277 278 279 280 280 280 278 278 280 281 278
243 244 244 244 245 245 246 250 252 249 246 246 247 246 243 239 237 236 237 236 235 234 234 233 233 234 236 240 242 243 244 246 246 247 247 248 249 250 250 249 249 250 252 254 256 259 262 265 267 269 271 272 273 275 275 276 275 274 274 273 272 272 272 274 276 278 280 282 282 282 281 280 278 278 277 277 278 279 280 280 280 281 282 283 283
242 244 245 245 243 243 243 245 248 250 250 249 251 255 252 244 239 238 240 242 242 239 236 235 235 234 235 238 241 242 243 244 246 247 248 248 248 250 251 251 251 251 252 254 256 259 261 263 265 266 268 269 270 271 272 273 273 273 272 271 270 270 272 274 276 277 279 281 282 284 284 284 283 281 280 279 279 279 279 279 279 281 283 283 283
240 242 244 246 245 242 240 242 245 248 250 251 251 252 252 248 241 236 236 239 242 243 241 239 237 236 237 240 242 243 243 243 245 248 249 250 250 251 252 252 252 252 253 255 258 260 262 263 263 264 265 266 267 268 269 271 272 272 272 272 271 271 272 273 274 275 277 278 279 281 282 282 282 281 281 280 280 280 280 281 281 281 282 281 280
241 241 243 245 245 243 240 242 245 248 249 250 249 247 249 252 251 245 241 242 244 246 244 241 242 245 245 245 246 246 245 245 245 247 248 249 250 251 253 253 253 254 255 256 257 259 260 261 262 262 262 263 264 266 267 268 269 270 271 271 271 271 271 271 272 274 276 277 278 278 278 277 277 278 278 278 278 279 280 282 283 282 281 280 279
243 243 244 245 246 246 244 242 243 246 248 249 248 247 248 252 255 253 250 249 248 249 249 246 246 249 250 250 251 249 248 248 247 246 245 247 249 250 252 254 256 256 258 259 260 260 260 260 261 261 261 261 262 263 264 265 266 267 269 269 270 270 270 270 272 273 275 277 277 277 276 276 276 277 277 276 277 278 280 281 281 281 281 281 281
246 245 245 245 246 246 246 244 243 244 246 248 250 250 249 249 251 252 252 252 252 253 254 252 252 252 253 254 256 255 252 250 249 246 244 245 247 249 251 254 257 258 259 261 262 263 262 261 260 260 261 262 263 264 265 265 265 266 266 267 268 268 268 269 270 271 272 273 274 274 275 276 276 277 277 277 277 279 280 280 280 280 280 281 281
246 246 246 246 246 247 246 246 245 245 246 247 250 252 251 250 249 250 251 252 254 255 256 256 256 256 256 257 259 263 263 260 256 252 248 245 245 246 248 251 253 254 256 260 262 263 261 258 257 258 261 262 264 265 266 266 267 267 268 268 268 268 268 268 269 270 270 271 271 272 273 274 275 275 276 276 277 278 279 279 280 280 281 281 280
245 245 246 246 247 248 248 248 248 248 248 248 250 252 253 252 252 252 253 254 253 254 256 258 258 257 257 258 258 260 263 265 264 262 259 256 253 250 249 250 251 252 255 258 260 261 259 256 254 255 257 259 260 262 264 265 266 267 268 269 270 270 271 271 271 271 271 271 271 272 273 273 274 274 275 274 275 276 276 276 277 279 280 280 281
244 244 245 246 247 248 249 250 250 250 250 250 251 252 254 254 254 254 255 256 255 254 254 255 257 258 258 259 258 257 257 259 262 263 264 265 265 263 262 261 261 261 261 261 261 261 262 260 258 256 257 258 260 261 262 262 263 264 266 268 270 272 273 273 273 273 273 273 273 272 272 273 274 274 274 274 274 274 274 273 273 275 277 278 280
247 246 246 246 247 248 249 250 250 251 251 251 251 251 253 254 255 255 256 257 258 257 256 255 255 256 258 259 260 260 258 258 258 260 262 264 265 265 265 265 266 267 267 267 266 266 266 266 265 264 264 264 264 264 263 262 262 263 265 267 269 270 271 272 273 274 274 273 273 272 272 272 273 273 273 273 273 273 273 272 272 273 275 276 278
250 249 248 248 248 248 249 250 250 251 251 251 251 251 251 252 253 255 256 256 257 259 259 258 257 257 258 259 260 261 261 259 258 258 259 260 261 261 261 261 262 263 264 265 265 265 266 265 265 266 266 266 266 266 266 265 265 265 266 267 269 270 271 271 272 273 273 273 272 272 272 272 272 272 273 273 272 272 272 272 271 272 274 276 277
251 251 250 249 249 249 249 249 249 250 250 250 250 250 251 251 251 252 254 255 256 257 258 259 259 258 258 259 260 261 262 261 260 258 258 259 260 260 260 260 260 260 260 260 261 261 262 262 263 263 264 264 264 265 265 265 265 265 266 267 268 269 270 270 271 271 272 273 273 272 272 271 271 270 271 272 272 272 272 272 272 271 272 274 276
248 250 250 250 250 250 249 249 249 249 249 250 250 250 250 251 251 251 252 253 254 256 256 258 259 259 259 259 259 260 262 263 263 263 261 260 260 261 261 261 262 262 261 260 260 260 260 260 260 261 261 262 262 263 263 263 263 264 265 266 267 268 268 269 270 270 271 271 272 272 272 271 270 269 270 270 270 271 272 272 272 271 270 271 273
247 248 249 249 250 250 249 249 249 248 248 249 249 250 250 251 251 252 252 253 253 254 256 257 258 259 259 260 260 260 260 261 263 264 264 264 263 262 262 261 261 262 262 262 262 261 260 260 260 259 260 260 261 262 263 263 263 263 263 264 266 267 268 268 269 269 269 269 270 270 271 271 270 270 270 270 270 270 270 270 271 271 270 270 271
246 247 248 249 249 250 249 249 249 248 248 248 249 249 250 250 251 251 252 253 254 254 255 256 257 258 258 259 260 260 260 260 260 261 262 263 263 263 263 263 262 262 262 262 262 262 262 261 261 260 260 260 260 261 262 263 263 263 263 263 264 265 266 267 268 268 269 269 268 268 269 269 270 270 269 269 269 269 268 268 269 270 270 270 270
246 247 248 249 249 250 250 250 250 250 249 249 249 250 250 250 251 251 252 252 253 254 254 255 256 257 258 258 259 259 260 260 260 260 260 260 261 262 262 262 262 262 263 263 263 263 263 262 262 262 261 261 260 260 261 262 262 263 263 263 263 264 264 265 266 267 268 268 268 268 268 268 268 269 268 268 268 267 268 268 268 268 269 269 270
245 246 246 247 249 250 250 251 251 252 252 252 251 251 251 251 251 252 252 253 253 254 254 254 255 256 257 258 259 259 259 259 260 260 261 261 261 261 262 262 263 262 262 262 263 263 263 263 263 263 263 262 262 262 261 262 262 263 263 263 263 263 263 264 264 265 266 267 268 268 268 268 268 268 268 268 267 267 267 267 267 267 267 267 268
244 245 245 246 247 248 250 250 251 252 252 253 253 253 253 253 253 253 253 253 253 254 254 254 255 255 255 256 257 258 259 260 260 260 261 261 261 262 262 262 263 263 263 263 262 262 263 263 263 264 264 264 264 264 264 263 263 263 263 263 263 263 263 263 264 264 264 265 266 267 268 269 269 268 268 268 268 268 268 267 267 267 267 267 267
244 244 245 245 246 247 248 249 250 251 252 253 253 253 253 253 254 254 254 254 254 254 255 255 255 256 256 256 256 257 258 259 259 260 260 261 261 262 262 262 262 263 263 263 263 263 263 263 263 263 264 265 265 265 265 265 264 264 264 263 263 263 263 263 263 264 264 264 265 266 267 268 268 269 269 268 268 268 268 268 268 267 267 267 267
246 246 246 246 246 247 248 248 249 250 251 252 252 253 253 254 253 253 254 254 254 255 255 255 256 256 257 257 257 257 257 257 258 259 259 260 260 261 261 262 262 262 262 263 263 263 264 264 264 263 264 264 264 265 265 265 265 265 265 265 265 265 264 264 264 264 264 264 264 265 265 266 267 268 269 269 268 268 268 268 268 268 267 267 267
247 248 248 247 247 247 248 248 249 249 250 251 251 252 253 253 253 253 253 253 253 253 254 255 255 256 256 256 257 257 257 258 258 258 259 259 260 260 260 260 261 262 262 262 263 263 264 264 264 265 264 264 264 265 265 265 265 265 266 266 265 265 265 265 265 265 265 265 264 264 264 265 265 266 267 268 268 268 268 267 268 268 268 268 268
248 248 248 248 248 248 248 249 249 249 250 250 251 251 252 252 253 253 253 253 253 253 253 253 254 255 255 255 255 256 257 257 258 258 258 259 259 260 260 260 260 261 262 262 263 263 263 264 264 265 265 265 265 265 265 265 265 265 265 265 266 265 265 265 266 266 266 266 265 265 265 265 265 265 265 266 267 267 268 267 267 267 268 268 268
249 249 249 249 249 249 249 249 249 250 250 250 250 251 251 252 252 253 253 253 253 253 253 253 253 254 254 255 255 255 256 256 257 257 258 258 258 259 260 260 261 261 261 262 262 262 263 263 263 264 264 264 265 265 265 265 265 265 265 265 265 265 265 265 265 265 265 265 265 266 266 265 265 265 265 265 266 266 266 267 267 267 267 267 267
250 250 250 250 250 250 250 250 250 250 250 251 251 251 252 252 252 253 253 254 254 254 254 254 254 254 254 255 255 256 256 257 257 258 258 258 258 259 259 259 260 261 261 261 262 262 262 263 263 263 264 264 264 264 264 264 264 265 265 265 265 265 265 265 265 265 265 265 265 265 265 265 265 265 265 265 265 265 266 266 267 267 267 267 267
250 251 251 251 251 251 251 251 251 251 251 251 251 252 252 252 253 253 254 254 255 256 256 256 256 256 257 257 257 257 258 258 258 259 259 260 260 260 260 260 260 261 261 261 262 262 262 263 263 263 264 264 264 264 264 264 264 264 264 264 264 264 264 264 264 264 264 264 264 264 264 264 264 264 265 265 265 265 265 265 266 266 266 267 267
250 251 252 252 252 253 252 252 252 252 252 252 252 252 252 253 253 254 254 255 255 256 256 257 257 258 258 259 259 259 259 259 260 260 260 261 261 261 262 262 262 262 262 262 262 262 262 262 263 263 263 264 264 264 265 265 265 264 264 264 263 263 263 263 263 263 263 263 263 263 263 263 263 263 263 264 264 264 264 264 265 265 265 265 266
250 251 252 252 253 253 253 253 253 253 253 253 253 253 253 254 254 255 255 256 256 256 257 257 258 258 259 259 260 260 261 261 261 262 262 262 262 262 263 263 263 263 263 263 263 263 263 263 263 262 262 263 263 263 264 264 264 264 265 264 264 264 264 263 263 263 263 262 262 262 262 263 263 263 263 263 263 263 263 263 264 264 264 264 264
250 251 251 252 253 253 253 253 254 253 253 253 253 254 254 254 254 255 255 256 257 257 258 258 258 259 259 260 260 261 262 262 263 264 264 264 265 265 265 265 265 265 265 265 265 265 264 264 264 263 263 263 263 263 263 263 263 263 264 264 264 264 264 264 263 263 263 262 262 262 262 262 262 262 262 262 262 262 262 263 263 263 263 263 263
250 250 251 251 252 253 253 254 254 253 253 253 254 254 254 254 254 254 255 255 256 257 257 258 259 260 261 262 262 263 264 264 265 266 266 267 267 267 268 268 268 268 268 268 268 268 268 267 267 266 266 265 264 264 263 263 263 263 263 263 263 263 263 263 263 263 263 263 262 262 262 261 261 261 261 262 262 262 262 262 262 262 262 262 262
250 251 250 251 251 252 252 253 253 253 253 253 253 253 254 254 254 254 254 255 256 257 258 260 261 263 263 264 265 265 266 266 266 267 268 268 269 269 269 270 270 271 271 271 271 271 271 270 270 269 269 268 267 267 266 266 265 264 264 263 263 263 263 263 262 262 262 263 262 262 262 261 261 261 261 261 261 261 261 262 262 261 261 261 261
250 250 250 250 250 251 252 252 253 253 253 253 253 253 253 254 254 255 255 257 258 260 261 262 263 264 264 265 265 266 267 267 268 269 270 270 271 271 272 272 273 273 274 274 274 273 273 273 272 272 271 270 270 269 269 268 268 267 267 266 266 265 265 264 264 263 263 262 262 262 262 262 262 261 261 260 260 260 260 261 261 261 261 261 260
250 250 250 250 250 250 251 253 253 253 253 253 253 254 254 254 255 256 257 258 260 261 262 263 263 264 265 266 266 267 268 269 270 271 272 273 274 274 275 275 276 276 276 276 276 275 275 275 274 273 273 273 272 272 271 271 270 270 270 269 269 269 268 268 267 267 266 265 264 263 263 263 262 262 261 261 261 261 260 260 260 260 259 259 259
250 250 250 250 249 250 251 252 253 253 253 253 253 254 254 255 256 257 258 259 260 261 262 263 264 264 265 266 267 268 269 270 271 272 273 274 275 275 276 276 277 277 278 278 278 277 277 276 275 274 274 273 273 272 272 272 271 271 271 270 270 270 270 269 269 269 269 268 267 266 265 265 264 263 263 262 262 261 261 261 261 260 260 259 259
Height
5933 5934 5935 5936 5938 5939 5941 5943 5944 5945 5947 5947 5948 5949 5950 5950 5951 5953 5954 5955 5955 5957 5958 5958 5959 5959 5959 5960 5960 5961 5961 5962 5962 5962 5962 5962 5963 5963 5964 5965 5966 5967 5968 5969 5969 5970 5970 5971 5971 5971 5972 5972 5972 5973 5973 5973 5973 5973 5973 5974 5974 5975 5975 5975 5975 5975 5975 5975 5975 5975 5976 5976 5976 5976 5976 5976 5975 5975 5974 5974 5974 5974 5973 5973 5972
5931 5932 5933 5934 5935 5937 5939 5941 5942 5944 5945 5946 5947 5948 5948 5949 5951 5952 5953 5954 5955 5956 5957 5958 5959 5959 5959 5960 5960 5961 5961 5961 5962 5962 5962 5962 5962 5963 5963 5964 5965 5966 5967 5968 5968 5969 5970 5970 5970 5971 5971 5972 5972 5972 5972 5972 5972 5973 5973 5973 5974 5974 5975 5975 5975 5975 5975 5975 5975 5975 5975 5975 5975 5975 5976 5975 5975 5975 5974 5974 5974 5974 5973 5972 5972
5928 5930 5931 5932 5933 5935 5937 5939 5940 5942 5943 5943 5944 5945 5946 5948 5949 5951 5952 5954 5955 5956 5957 5958 5959 5959 5959 5960 5960 5960 5961 5961 5962 5962 5962 5963 5963 5963 5963 5964 5964 5965 5966 5967 5968 5968 5969 5970 5970 5971 5971 5971 5972 5972 5972 5972 5972 5972 5972 5972 5973 5974 5974 5974 5974 5974 5974 5974 5975 5975 5975 5975 5975 5975 5975 5975 5975 5974 5974 5974 5974 5974 5973 5973 5972
5926 5928 5929 5930 5931 5932 5934 5936 5938 5939 5940 5941 5942 5943 5944 5946 5947 5949 5951 5952 5954 5955 5956 5956 5957 5958 5959 5959 5960 5960 5961 5961 5961 5962 5962 5963 5963 5963 5963 5964 5965 5965 5966 5966 5967 5968 5969 5970 5970 5970 5971 5971 5972 5972 5972 5972 5972 5972 5972 5973 5973 5973 5974 5974 5974 5974 5974 5974 5974 5975 5975 5975 5975 5975 5975 5975 5974 5974 5974 5974 5974 5973 5973 5973 5972
5925 5927 5928 5929 5929 5930 5932 5933 5935 5937 5938 5939 5940 5941 5942 5943 5945 5946 5948 5950 5952 5953 5954 5955 5956 5957 5958 5958 5959 5959 5960 5960 5961 5961 5962 5962 5963 5963 5963 5964 5964 5965 5965 5966 5967 5968 5968 5969 5970 5970 5970 5971 5971 5972 5972 5972 5972 5973 5973 5973 5973 5973 5974 5974 5974 5974 5974 5974 5974 5974 5974 5974 5974 5974 5974 5974 5974 5974 5974 5974 5973 5973 5973 5972 5972
5924 5926 5927 5928 5929 5929 5930 5931 5932 5934 5935 5937 5938 5939 5940 5941 5942 5944 5945 5947 5949 5950 5951 5952 5953 5954 5956 5957 5958 5958 5959 5959 5960 5960 5961 5961 5962 5962 5963 5963 5963 5964 5964 5965 5966 5966 5967 5968 5968 5969 5969 5970 5970 5970 5971 5971 5971 5971 5972 5972 5972 5972 5973 5973 5973 5973 5973 5973 5973 5973 5974 5974 5973 5973 5973 5973 5973 5973 5973 5973 5972 5972 5972 5971 5971
5922 5923 5925 5926 5927 5928 5928 5929 5929 5931 5932 5934 5936 5937 5938 5939 5940 5941 5943 5945 5947 5948 5949 5950 5951 5952 5953 5955 5956 5957 5958 5958 5959 5959 5960 5960 5961 5961 5962 5962 5962 5963 5963 5964 5964 5965 5966 5966 5967 5967 5968 5968 5969 5969 5969 5969 5969 5970 5970 5971 5971 5971 5971 5971 5971 5971 5971 5972 5972 5972 5972 5972 5972 5972 5972 5972 5972 5972 5972 5971 5971 5971 5971 5970 5970
5918 5920 5921 5922 5923 5924 5925 5926 5927 5928 5929 5931 5933 5935 5936 5937 5938 5940 5941 5943 5944 5946 5947 5948 5949 5950 5951 5952 5954 5955 5956 5957 5958 5958 5959 5959 5959 5960 5960 5961 5961 5962 5962 5963 5963 5964 5964 5965 5965 5966 5966 5967 5968 5968 5968 5968 5968 5969 5969 5969 5969 5969 5969 5970 5969 5969 5969 5969 5969 5970 5970 5970 5970 5970 5970 5971 5971 5971 5971 5970 5969 5969 5969 5969 5968
5916 5918 5919 5919 5919 5921 5923 5924 5925 5926 5927 5928 5930 5932 5933 5935 5936 5938 5939 5941 5942 5943 5945 5946 5947 5948 5949 5950 5951 5953 5954 5955 5956 5956 5957 5957 5957 5958 5958 5959 5960 5960 5961 5961 5962 5962 5962 5963 5964 5964 5964 5965 5966 5966 5967 5967 5968 5968 5968 5968 5968 5968 5968 5968 5968 5968 5968 5967 5967 5968 5967 5967 5967 5968 5968 5969 5969 5969 5969 5969 5969 5968 5968 5968 5967
5912 5914 5916 5916 5917 5919 5921 5922 5924 5925 5926 5927 5928 5929 5930 5932 5933 5935 5936 5938 5940 5941 5942 5943 5944 5945 5946 5948 5949 5950 5951 5952 5953 5954 5954 5955 5956 5956 5957 5957 5958 5959 5959 5959 5959 5960 5960 5960 5961 5962 5962 5962 5963 5964 5964 5965 5965 5965 5966 5966 5966 5966 5966 5966 5966 5966 5966 5966 5966 5966 5966 5965 5965 5966 5966 5966 5967 5968 5968 5968 5967 5967 5967 5967 5965
5909 5910 5912 5913 5914 5917 5919 5920 5921 5922 5923 5925 5925 5926 5927 5929 5930 5931 5933 5934 5936 5937 5939 5940 5941 5942 5943 5944 5946 5947 5948 5949 5950 5951 5952 5953 5954 5955 5955 5956 5957 5957 5957 5957 5957 5957 5958 5958 5959 5959 5960 5960 5960 5961 5961 5961 5961 5962 5962 5963 5963 5964 5964 5964 5964 5965 5965 5964 5964 5964 5964 5963 5962 5963 5963 5964 5964 5965 5965 5965 5965 5965 5965 5965 5964
5907 5908 5908 5909 5910 5913 5914 5916 5917 5918 5919 5921 5922 5923 5924 5926 5927 5928 5929 5931 5932 5933 5935 5936 5937 5939 5940 5941 5943 5944 5945 5946 5947 5948 5949 5950 5951 5953 5954 5955 5955 5956 5956 5956 5956 5956 5957 5957 5957 5957 5957 5958 5958 5958 5958 5959 5959 5959 5960 5960 5961 5961 5961 5961 5962 5962 5962 5962 5962 5961 5961 5961 5960 5960 5960 5961 5962 5962 5962 5963 5963 5963 5963 5962 5962
5904 5905 5905 5905 5906 5908 5909 5911 5913 5914 5915 5916 5918 5919 5921 5922 5924 5925 5926 5928 5930 5931 5932 5933 5934 5936 5937 5938 5940 5941 5943 5944 5945 5946 5947 5948 5949 5950 5952 5953 5954 5954 5954 5954 5955 5955 5955 5955 5955 5955 5955 5956 5956 5956 5956 5956 5957 5957 5958 5958 5959 5959 5960 5960 5960 5960 5960 5960 5960 5960 5959 5959 5959 5958 5957 5958 5959 5959 5960 5960 5960 5960 5960 5959 5959
5901 5901 5902 5903 5903 5904 5905 5907 5909 5910 5911 5912 5914 5916 5918 5919 5921 5923 5925 5927 5929 5930 5931 5932 5932 5933 5934 5935 5937 5938 5940 5941 5942 5943 5944 5945 5946 5947 5949 5950 5951 5952 5952 5952 5952 5952 5952 5953 5953 5953 5953 5953 5953 5954 5954 5954 5955 5956 5957 5957 5958 5958 5958 5959 5958 5958 5958 5958 5959 5959 5958 5957 5958 5957 5956 5956 5957 5957 5957 5957 5957 5957 5957 5956 5956
5897 5898 5899 5900 5900 5901 5902 5903 5905 5906 5907 5909 5911 5913 5915 5916 5918 5922 5924 5927 5929 5930 5930 5931 5931 5931 5932 5934 5935 5936 5937 5938 5939 5940 5941 5942 5943 5945 5946 5947 5948 5948 5949 5949 5949 5949 5949 5950 5950 5951 5951 5951 5951 5951 5952 5953 5954 5955 5955 5955 5956 5956 5956 5955 5955 5955 5955 5956 5957 5957 5956 5956 5956 5956 5955 5954 5954 5954 5954 5954 5954 5954 5953 5954 5954
5894 5895 5897 5898 5898 5899 5900 5901 5902 5903 5904 5906 5908 5910 5911 5913 5915 5919 5921 5923 5924 5926 5927 5927 5928 5929 5930 5930 5931 5933 5934 5935 5936 5938 5939 5940 5941 5942 5943 5944 5944 5945 5945 5946 5946 5947 5947 5948 5948 5949 5948 5948 5948 5949 5950 5951 5952 5952 5952 5953 5953 5953 5953 5951 5950 5951 5952 5953 5953 5954 5954 5954 5953 5953 5952 5951 5951 5951 5951 5952 5951 5950 5950 5952 5952
5892 5893 5895 5895 5896 5897 5898 5899 5900 5901 5902 5903 5905 5906 5908 5909 5911 5913 5916 5918 5919 5920 5921 5923 5925 5926 5926 5926 5928 5929 5930 5932 5934 5935 5937 5938 5939 5940 5941 5941 5942 5942 5942 5942 5943 5944 5945 5946 5946 5947 5946 5946 5945 5946 5947 5948 5949 5949 5950 5950 5950 5950 5950 5948 5947 5948 5949 5949 5950 5951 5951 5950 5950 5949 5949 5948 5947 5947 5947 5948 5947 5946 5947 5949 5949
5890 5891 5892 5892 5893 5895 5896 5897 5897 5898 5899 5901 5902 5903 5904 5906 5907 5909 5911 5913 5915 5915 5916 5917 5919 5921 5922 5923 5925 5926 5928 5929 5930 5932 5933 5934 5936 5937 5938 5938 5938 5938 5938 5939 5940 5941 5942 5943 5943 5944 5944 5944 5943 5943 5943 5945 5946 5946 5947 5947 5948 5947 5946 5945 5945 5946 5946 5946 5947 5948 5948 5948 5947 5947 5946 5945 5943 5943 5943 5944 5943 5942 5944 5945 5946
5888 5888 5889 5889 5891 5892 5893 5894 5895 5896 5897 5899 5900 5900 5901 5902 5903 5905 5907 5908 5910 5911 5911 5912 5914 5916 5917 5919 5920 5922 5924 5925 5926 5927 5928 5929 5931 5932 5933 5934 5934 5934 5935 5935 5936 5937 5938 5939 5940 5940 5941 5941 5941 5940 5940 5941 5941 5942 5942 5943 5944 5943 5943 5942 5943 5943 5943 5943 5944 5944 5945 5945 5944 5944 5944 5942 5940 5939 5940 5940 5940 5939 5941 5942 5942
5884 5885 5885 5886 5888 5889 5890 5891 5893 5893 5894 5896 5897 5898 5899 5899 5900 5902 5904 5905 5905 5906 5907 5909 5911 5913 5914 5915 5915 5917 5919 5920 5921 5922 5923 5925 5926 5927 5929 5930 5931 5931 5931 5932 5932 5933 5934 5935 5936 5936 5937 5937 5937 5937 5937 5936 5937 5937 5937 5938 5939 5939 5939 5940 5940 5940 5940 5940 5940 5940 5941 5941 5940 5940 5940 5939 5938 5936 5936 5937 5937 5937 5937 5938 5938
5880 5881 5882 5883 5884 5886 5887 5888 5889 5890 5891 5892 5894 5896 5897 5897 5898 5900 5901 5902 5903 5903 5904 5906 5908 5909 5911 5911 5911 5912 5914 5915 5916 5917 5919 5920 5921 5923 5924 5926 5927 5928 5928 5929 5930 5930 5931 5931 5931 5932 5932 5933 5933 5933 5933 5933 5933 5933 5933 5933 5934 5935 5935 5936 5936 5936 5936 5937 5937 5937 5937 5936 5936 5936 5935 5935 5934 5932 5932 5932 5933 5933 5933 5934 5934
5876 5877 5878 5879 5880 5882 5884 5885 5886 5887 5888 5889 5891 5893 5894 5895 5896 5897 5898 5899 5901 5901 5901 5903 5904 5906 5906 5906 5907 5908 5909 5911 5912 5913 5914 5915 5916 5917 5918 5920 5922 5923 5924 5925 5926 5926 5926 5927 5927 5927 5927 5928 5928 5929 5929 5929 5929 5929 5929 5929 5929 5930 5931 5931 5932 5932 5932 5933 5933 5933 5932 5931 5931 5931 5930 5930 5929 5928 5928 5928 5929 5929 5928 5928 5929
5871 5873 5874 5875 5876 5878 5880 5882 5883 5884 5885 5886 5887 5889 5890 5891 5893 5894 5895 5896 5897 5897 5898 5899 5900 5901 5902 5903 5903 5904 5905 5906 5907 5908 5909 5911 5912 5913 5914 5915 5917 5919 5919 5920 5920 5921 5922 5922 5922 5922 5922 5923 5923 5923 5924 5924 5925 5925 5925 5925 5925 5925 5926 5926 5927 5927 5928 5928 5928 5928 5928 5927 5926 5926 5926 5925 5925 5924 5924 5924 5924 5923 5923 5923 5924
5866 5868 5870 5871 5872 5874 5876 5878 5879 5881 5881 5882 5883 5884 5886 5888 5889 5890 5891 5892 5894 5894 5895 5895 5896 5898 5899 5900 5900 5900 5901 5902 5903 5904 5905 5906 5908 5909 5910 5911 5912 5914 5914 5915 5915 5915 5916 5917 5917 5918 5918 5917 5918 5918 5918 5919 5919 5920 5920 5920 5920 5921 5921 5921 5922 5922 5923 5923 5923 5923 5923 5922 5921 5922 5921 5920 5920 5920 5920 5919 5918 5918 5918 5919 5919
5861 5863 5865 5867 5868 5870 5872 5874 5875 5877 5878 5879 5879 5880 5882 5883 5884 5886 5887 5888 5889 5890 5891 5891 5892 5894 5895 5896 5895 5895 5896 5898 5899 5900 5901 5902 5903 5905 5906 5907 5908 5909 5909 5910 5910 5910 5910 5911 5912 5912 5913 5913 5913 5912 5913 5913 5914 5915 5915 5916 5916 5916 5916 5916 5916 5917 5917 5918 5917 5918 5918 5917 5916 5916 5916 5916 5916 5915 5915 5914 5914 5913 5913 5913 5914
5857 5859 5860 5862 5864 5865 5867 5869 5870 5872 5873 5875 5876 5876 5877 5878 5880 5881 5882 5883 5885 5886 5887 5887 5888 5889 5890 5891 5892 5893 5893 5894 5895 5897 5898 5898 5899 5900 5901 5902 5903 5904 5904 5905 5904 5905 5905 5905 5906 5907 5907 5907 5908 5908 5908 5908 5909 5910 5910 5910 5911 5910 5910 5910 5911 5911 5911 5912 5912 5913 5912 5912 5911 5911 5911 5911 5911 5910 5909 5909 5910 5909 5908 5907 5909
5852 5854 5856 5857 5859 5860 5862 5863 5865 5867 5868 5870 5871 5872 5873 5874 5875 5876 5877 5878 5880 5881 5882 5883 5883 5884 5885 5886 5887 5889 5890 5891 5892 5893 5893 5894 5895 5896 5896 5898 5899 5899 5900 5900 5900 5900 5900 5900 5901 5902 5902 5902 5903 5903 5903 5904 5905 5905 5905 5905 5905 5905 5905 5905 5905 5905 5906 5906 5906 5907 5906 5906 5906 5906 5905 5905 5906 5905 5904 5904 5905 5905 5904 5902 5903
5847 5849 5851 5852 5854 5855 5857 5858 5860 5861 5863 5864 5866 5867 5868 5869 5870 5871 5872 5873 5874 5875 5877 5878 5879 5880 5880 5881 5882 5883 5884 5885 5886 5888 5889 5890 5891 5891 5892 5893 5894 5895 5895 5895 5895 5895 5895 5896 5896 5897 5897 5898 5898 5898 5899 5900 5900 5900 5900 5900 5900 5900 5900 5900 5900 5900 5900 5900 5900 5900 5900 5900 5901 5900 5900 5900 5900 5899 5898 5899 5900 5900 5899 5898 5898
5840 5842 5844 5846 5848 5849 5851 5853 5854 5856 5857 5859 5860 5861 5863 5864 5864 5865 5866 5867 5868 5869 5871 5872 5873 5874 5875 5876 5876 5877 5878 5879 5880 5882 5883 5885 5886 5887 5888 5888 5889 5889 5890 5890 5890 5890 5891 5891 5892 5892 5893 5893 5894 5894 5895 5896 5896 5896 5895 5895 5895 5894 5894 5894 5894 5894 5894 5895 5895 5895 5895 5895 5895 5895 5895 5895 5895 5894 5893 5894 5894 5894 5893 5893 5893
5833 5835 5837 5839 5841 5843 5844 5846 5848 5849 5850 5852 5853 5855 5856 5857 5859 5860 5860 5861 5862 5863 5864 5866 5867 5868 5869 5870 5871 5871 5872 5873 5874 5876 5878 5879 5880 5881 5881 5882 5883 5883 5884 5885 5885 5885 5886 5886 5887 5887 5888 5888 5889 5889 5890 5891 5891 5890 5890 5889 5889 5889 5889 5889 5889 5889 5889 5889 5889 5889 5889 5889 5889 5889 5889 5889 5889 5889 5888 5888 5888 5888 5888 5888 5888
5826 5828 5830 5832 5834 5836 5837 5839 5841 5842 5843 5845 5846 5848 5849 5851 5852 5853 5854 5855 5856 5857 5858 5859 5860 5861 5862 5863 5864 5865 5866 5867 5868 5869 5871 5873 5874 5874 5875 5876 5876 5876 5877 5878 5878 5879 5880 5880 5880 5881 5882 5882 5883 5883 5883 5884 5885 5884 5884 5883 5882 5882 5883 5883 5883 5884 5884 5884 5883 5883 5883 5883 5883 5883 5883 5884 5884 5884 5883 5883 5882 5882 5882 5882 5883
5820 5821 5823 5825 5827 5829 5830 5832 5833 5835 5836 5838 5839 5841 5842 5844 5845 5846 5848 5849 5850 5851 5852 5853 5854 5855 5856 5857 5858 5859 5860 5861 5862 5862 5863 5864 5866 5867 5868 5869 5869 5870 5870 5871 5871 5872 5873 5873 5874 5875 5875 5875 5876 5876 5876 5876 5877 5877 5877 5877 5876 5876 5876 5876 5877 5877 5878 5878 5877 5877 5877 5877 5877 5877 5877 5877 5878 5878 5877 5877 5876 5876 5876 5877 5877
5813 5815 5816 5818 5820 5821 5823 5824 5826 5828 5829 5831 5832 5834 5835 5837 5838 5840 5841 5842 5843 5844 5845 5846 5847 5848 5849 5850 5851 5852 5853 5855 5856 5856 5857 5857 5858 5859 5860 5861 5862 5863 5863 5864 5864 5865 5866 5866 5867 5867 5868 5868 5868 5869 5869 5869 5869 5870 5870 5870 5870 5870 5869 5869 5870 5870 5870 5870 5871 5871 5870 5870 5870 5871 5871 5871 5871 5871 5871 5871 5870 5870 5870 5871 5871
5806 5808 5809 5811 5812 5814 5816 5817 5819 5820 5822 5824 5825 5827 5829 5830 5831 5833 5834 5835 5836 5837 5838 5839 5840 5841 5842 5843 5845 5846 5847 5847 5848 5849 5850 5850 5851 5851 5852 5853 5854 5855 5856 5856 5857 5858 5858 5859 5859 5860 5860 5861 5861 5861 5861 5861 5861 5862 5862 5863 5863 5863 5863 5862 5862 5862 5862 5862 5863 5863 5863 5863 5863 5863 5864 5864 5864 5864 5864 5864 5864 5864 5864 5864 5864
5799 5801 5803 5804 5805 5806 5808 5810 5812 5813 5815 5816 5818 5820 5821 5823 5824 5825 5826 5828 5829 5830 5831 5832 5834 5834 5835 5836 5837 5838 5840 5840 5840 5841 5841 5842 5843 5844 5845 5845 5846 5847 5848 5849 5850 5850 5850 5851 5851 5852 5852 5853 5853 5853 5854 5854 5854 5854 5855 5855 5855 5855 5855 5855 5855 5855 5854 5854 5854 5855 5855 5855 5855 5855 5856 5856 5857 5857 5857 5857 5857 5857 5857 5857 5857
5792 5794 5796 5797 5798 5800 5801 5802 5804 5806 5808 5809 5811 5812 5814 5815 5816 5818 5819 5820 5821 5822 5823 5824 5826 5827 5828 5829 5830 5831 5831 5832 5832 5833 5833 5834 5835 5836 5837 5838 5838 5839 5839 5840 5841 5842 5842 5843 5843 5844 5844 5844 5844 5845 5845 5846 5846 5846 5846 5847 5847 5847 5847 5847 5847 5847 5846 5846 5846 5846 5847 5847 5847 5847 5847 5848 5849 5849 5849 5849 5849 5849 5849 5849 5850
5784 5786 5788 5790 5792 5793 5794 5795 5796 5798 5800 5802 5803 5805 5806 5807 5809 5810 5811 5812 5814 5815 5816 5816 5817 5818 5819 5821 5822 5824 5824 5824 5824 5825 5826 5826 5827 5828 5828 5829 5830 5830 5831 5831 5831 5832 5833 5834 5835 5835 5835 5835 5836 5836 5836 5837 5837 5838 5838 5838 5839 5839 5839 5839 5838 5838 5838 5838 5838 5838 5838 5838 5838 5838 5838 5839 5840 5840 5840 5840 5840 5841 5841 5841 5841
5777 5779 5780 5782 5784 5785 5786 5788 5789 5791 5793 5794 5795 5797 5798 5799 5801 5802 5804 5805 5806 5807 5808 5809 5809 5810 5811 5812 5814 5815 5816 5816 5817 5817 5817 5818 5819 5819 5820 5821 5821 5822 5822 5822 5823 5823 5824 5825 5826 5826 5827 5827 5827 5827 5828 5828 5828 5829 5829 5830 5830 5830 5830 5830 5830 5830 5830 5830 5830 5830 5830 5830 5830 5829 5829 5830 5830 5831 5831 5831 5831 5831 5832 5832 5832
5769 5771 5773 5774 5776 5777 5779 5780 5782 5784 5785 5787 5788 5789 5790 5791 5793 5794 5796 5798 5799 5800 5800 5801 5801 5802 5803 5805 5806 5806 5806 5807 5808 5809 5809 5809 5810 5811 5812 5812 5812 5813 5813 5814 5814 5815 5815 5815 5816 5816 5817 5817 5818 5818 5818 5819 5819 5819 5820 5820 5821 5821 5821 5821 5821 5821 5821 5821 5821 5821 5821 5821 5821 5821 5821 5821 5821 5821 5822 5822 5822 5822 5822 5823 5823
5761 5763 5765 5766 5768 5769 5771 5773 5774 5776 5777 5779 5780 5781 5782 5784 5785 5786 5788 5789 5790 5791 5792 5793 5793 5794 5795 5796 5797 5797 5798 5798 5799 5800 5800 5801 5801 5801 5802 5803 5803 5804 5804 5804 5805 5805 5806 5806 5806 5807 5807 5807 5807 5807 5808 5808 5809 5809 5810 5810 5811 5811 5811 5811 5811 5811 5811 5811 5812 5812 5812 5812 5812 5812 5812 5812 5812 5812 5812 5813 5813 5813 5813 5813 5813
5753 5754 5756 5757 5759 5761 5764 5765 5766 5768 5769 5771 5772 5773 5775 5776 5777 5778 5779 5780 5781 5783 5784 5785 5786 5786 5787 5787 5788 5789 5789 5790 5790 5790 5791 5791 5792 5792 5793 5793 5794 5794 5794 5795 5795 5795 5796 5796 5796 5797 5797 5797 5797 5797 5797 5797 5798 5798 5799 5799 5800 5800 5800 5800 5800 5800 5801 5801 5801 5802 5802 5802 5802 5803 5803 5803 5803 5803 5803 5803 5803 5804 5804 5803 5803
5745 5746 5747 5748 5751 5754 5756 5757 5759 5760 5761 5763 5764 5766 5767 5768 5769 5770 5771 5772 5773 5774 5775 5776 5777 5778 5778 5779 5779 5780 5780 5781 5781 5781 5781 5781 5782 5783 5783 5784 5784 5784 5784 5785 5785 5785 5785 5785 5786 5786 5786 5786 5786 5786 5787 5787 5787 5787 5787 5788 5788 5788 5789 5789 5789 5789 5789 5790 5790 5791 5791 5791 5792 5792 5793 5793 5793 5793 5793 5793 5793 5794 5794 5794 5794
5736 5737 5738 5740 5743 5745 5747 5749 5751 5752 5753 5755 5756 5757 5758 5759 5760 5761 5763 5763 5765 5766 5767 5767 5769 5769 5770 5770 5771 5772 5772 5772 5772 5772 5772 5772 5772 5773 5773 5774 5774 5774 5774 5774 5774 5774 5775 5775 5775 5775 5775 5775 5775 5775 5775 5775 5775 5775 5776 5776 5776 5777 5776 5776 5776 5777 5777 5778 5778 5779 5779 5780 5780 5781 5781 5781 5781 5782 5783 5783 5783 5783 5783 5783 5783
5728 5729 5731 5733 5735 5738 5739 5741 5743 5744 5745 5746 5748 5748 5748 5750 5752 5753 5754 5755 5756 5757 5758 5759 5760 5761 5761 5762 5762 5762 5762 5762 5763 5763 5763 5763 5763 5763 5763 5764 5764 5764 5764 5764 5764 5764 5764 5764 5764 5764 5764 5763 5763 5763 5763 5763 5763 5763 5763 5764 5764 5765 5764 5764 5764 5764 5764 5765 5765 5766 5766 5767 5768 5769 5769 5769 5769 5770 5771 5771 5771 5772 5772 5772 5772
5721 5722 5724 5726 5728 5730 5732 5733 5735 5736 5737 5738 5739 5739 5741 5742 5744 5745 5746 5746 5747 5748 5749 5750 5752 5752 5752 5753 5753 5753 5753 5753 5753 5754 5754 5754 5753 5753 5754 5754 5754 5753 5753 5753 5753 5752 5752 5752 5752 5753 5753 5752 5752 5752 5751 5751 5751 5751 5750 5751 5751 5752 5751 5751 5751 5751 5751 5752 5752 5753 5754 5754 5755 5756 5757 5757 5757 5757 5758 5759 5759 5759 5760 5760 5760
5714 5715 5717 5719 5720 5722 5724 5726 5727 5728 5729 5730 5731 5732 5733 5734 5735 5737 5738 5738 5739 5740 5741 5742 5743 5743 5743 5744 5744 5744 5744 5744 5744 5744 5744 5744 5743 5744 5744 5744 5743 5743 5742 5742 5742 5741 5741 5741 5741 5741 5741 5741 5741 5740 5740 5740 5739 5739 5738 5738 5738 5738 5738 5737 5737 5737 5738 5738 5738 5739 5740 5741 5742 5743 5743 5744 5744 5744 5745 5746 5746 5746 5746 5747 5747
5708 5709 5710 5712 5713 5715 5717 5719 5719 5720 5722 5723 5724 5725 5726 5727 5728 5729 5730 5730 5731 5732 5733 5734 5734 5735 5735 5735 5735 5735 5735 5735 5735 5735 5735 5734 5735 5735 5734 5734 5733 5732 5732 5731 5730 5730 5730 5729 5729 5729 5729 5728 5728 5728 5728 5728 5728 5727 5727 5726 5725 5724 5724 5723 5723 5723 5723 5723 5724 5725 5726 5727 5729 5730 5730 5730 5730 5730 5731 5732 5732 5732 5733 5733 5734
5701 5702 5704 5705 5706 5708 5710 5711 5712 5713 5715 5716 5716 5717 5718 5719 5720 5722 5723 5723 5724 5725 5726 5726 5727 5727 5727 5727 5727 5727 5727 5727 5727 5727 5726 5726 5726 5726 5725 5724 5723 5723 5722 5721 5720 5719 5719 5718 5718 5717 5717 5716 5716 5716 5715 5715 5715 5715 5714 5713 5712 5711 5710 5709 5709 5709 5708 5708 5709 5710 5711 5712 5714 5715 5716 5716 5716 5716 5716 5717 5717 5718 5718 5718 5719
5695 5696 5697 5698 5700 5701 5702 5703 5705 5706 5707 5708 5709 5710 5711 5712 5713 5714 5715 5716 5716 5717 5718 5718 5719 5719 5719 5719 5719 5719 5718 5718 5718 5718 5717 5717 5717 5716 5716 5715 5714 5713 5712 5711 5710 5709 5708 5707 5706 5706 5705 5704 5704 5703 5703 5703 5702 5702 5701 5700 5699 5698 5697 5695 5695 5695 5693 5693 5694 5695 5696 5697 5698 5699 5700 5701 5701 5701 5701 5702 5702 5702 5702 5702 5704
5688 5689 5690 5691 5693 5694 5695 5696 5697 5699 5700 5701 5702 5703 5704 5705 5706 5707 5708 5708 5709 5709 5710 5710 5710 5711 5711 5710 5710 5710 5710 5710 5710 5709 5709 5708 5707 5707 5706 5705 5705 5703 5702 5701 5700 5699 5698 5696 5695 5694 5693 5693 5692 5691 5691 5690 5689 5689 5688 5687 5686 5684 5683 5682 5681 5680 5678 5677 5679 5681 5681 5682 5682 5683 5684 5685 5685 5685 5686 5686 5685 5685 5685 5686 5688
5681 5682 5683 5685 5686 5687 5688 5689 5691 5692 5693 5694 5695 5696 5697 5698 5698 5699 5700 5701 5701 5702 5702 5702 5702 5702 5702 5702 5702 5702 5702 5701 5701 5700 5700 5699 5699 5698 5697 5696 5695 5694 5693 5691 5689 5688 5687 5685 5684 5682 5681 5680 5680 5679 5678 5677 5676 5676 5675 5674 5672 5671 5669 5668 5666 5665 5662 5661 5663 5666 5666 5666 5666 5667 5668 5669 5668 5668 5669 5668 5667 5667 5668 5669 5671